[[{"header":{"parameterUnit":"m.s-1","parameterCategory":1,"la1":30.2991,"la2":30.254,"lo1":-89.0895,"lo2":-89.0444,"dy":0.0017,"dx":0.0017,"nx":28,"ny":28,"refTime":"2024-05-15T21:00:00:Z","depth":0,"parameterNumber":2,"parameterNumberName":"U-component_of_WINDS"},"data":[0,0,0,0,0,0,0,0,0,0,0,0,0,0,0,0,0,0,0,0,0,0,0,0,0,0,0,0,0,0,0,0,0,0,0,0,0,0,0,0,0,0,0,0,0,0,0,0,0,0,0,0,0,0,0,0,0,0,0.436,0.436,0,0.4325,0.4325,0.4324,0.4261,0.426,0.4259,0.4258,0.4222,0.4222,0.4222,0,0,0,0,0,0,0,0,0,0,0,0,0,0.4373,0.4374,0.4361,0.436,0.436,0.4325,0.4325,0.4324,0.4262,0.426,0.4259,0.4257,0.4222,0.4222,0.4222,0,0,0,0,0,0,0,0,0,0,0,0,0,0.4356,0.4374,0.4361,0.4324,0.4321,0.4325,0.4325,0.4324,0.4262,0.426,0.4258,0.4257,0.4222,0.4222,0.4222,0.4259,0,0,0.4223,0.4223,0,0,0,0,0,0,0,0,0.4357,0.4356,0.433,0.4327,0.4323,0.4296,0.4316,0.4302,0.4262,0.4284,0.4258,0.4256,0.4248,0.4246,0.4243,0.4258,0.4256,0.4223,0.4223,0.4223,0.4223,0,0,0,0,0,0,0,0.4358,0.4357,0.4346,0.433,0.4325,0.431,0.4305,0.4313,0.4277,0.4282,0.4278,0.4274,0.4246,0.4243,0.4242,0.4256,0.4223,0.4223,0.4223,0.4223,0.4297,0.4299,0,0,0,0,0,0,0.4365,0.4358,0.4348,0.4345,0.4336,0.4311,0.4306,0.4306,0.4276,0.427,0.4276,0.4271,0.4244,0.4242,0.424,0.4281,0.4223,0.4223,0.4224,0.4295,0.4298,0.43,0,0,0,0,0,0,0.4365,0.4365,0.4349,0.435,0.4347,0.4312,0.4314,0.4307,0.4304,0.4271,0.4265,0.428,0.4242,0.424,0.4255,0.4279,0.4224,0.4224,0.4293,0.4296,0.4299,0.4363,0,0,0,0,0,0,0.4366,0.4365,0.4379,0.4351,0.4347,0.4365,0.4315,0.4307,0.4304,0.4298,0.4274,0.4268,0.4241,0.4255,0.4255,0.4278,0.4224,0.4291,0.4295,0.4298,0.4359,0.4368,0.4376,0,0,0,0,0,0.4367,0.4399,0.438,0.4379,0.4364,0.4366,0.4364,0.4332,0.4307,0.432,0.4299,0.4269,0.4276,0.4257,0.4257,0.428,0.4289,0.4293,0.4297,0.4355,0.4366,0.4376,0,0,0,0,0,0,0.4431,0.4395,0.4374,0.4398,0.4386,0.4356,0.4372,0.4345,0.4339,0.4334,0.4294,0.4289,0.4309,0.4296,0.4275,0.4314,0.4278,0.4282,0.4322,0.4332,0.434,0.4343,0.4224,0,0,0,0,0,0.4448,0.4453,0.4421,0.4445,0.444,0.4407,0.4407,0.4383,0.4369,0.4363,0.4343,0.433,0.4329,0.433,0.4328,0.4357,0.435,0.4373,0.4381,0.4388,0.4392,0.4406,0.4415,0.4313,0.4313,0.4313,0,0,0.4484,0.4464,0.447,0.4458,0.4446,0.4451,0.4403,0.4411,0.4415,0.4364,0.4377,0.4362,0.4344,0.4366,0.4375,0.4356,0.4419,0.4393,0.4399,0.4399,0.4411,0.442,0.4429,0.4316,0.4315,0.4315,0,0,0.4551,0.4537,0.4556,0.4544,0.4525,0.4503,0.4507,0.4481,0.4469,0.4481,0.4443,0.4446,0.4446,0.4435,0.443,0.4491,0.4462,0.4491,0.4535,0.4549,0.4557,0.4564,0.4585,0.4593,0.4495,0.4496,0.4496,0,0.4597,0.4604,0.4569,0.4578,0.4574,0.4528,0.4546,0.4537,0.4519,0.4516,0.4495,0.4493,0.4479,0.4497,0.4512,0.4509,0.4512,0.4494,0.4559,0.4565,0.4571,0.4591,0.4599,0.4499,0.4499,0.4498,0.4498,0,0.4662,0.4667,0.4684,0.4667,0.4664,0.4678,0.4645,0.4646,0.4622,0.4602,0.4614,0.4595,0.4587,0.4589,0.4566,0.4604,0.4593,0.4566,0.4529,0.4585,0.4603,0.461,0.4504,0.4503,0.4502,0.4501,0,0,0.4769,0.4732,0.4739,0.473,0.4706,0.4709,0.472,0.4712,0.4714,0.4703,0.4711,0.4712,0.4686,0.468,0.4655,0.4667,0.4716,0.4638,0.4637,0.4653,0.4755,0.4775,0.4785,0.4696,0.4698,0.4699,0.4756,0,0.4831,0.4849,0.4817,0.4842,0.4846,0.4802,0.4811,0.4797,0.4778,0.4778,0.4757,0.4758,0.4724,0.472,0.473,0.4708,0.4736,0.4703,0.4703,0.4704,0.4709,0.4794,0.4816,0.4871,0.4763,0.4764,0.4765,0,0.4906,0.4898,0.4923,0.4896,0.4897,0.4906,0.4896,0.4897,0.4879,0.4865,0.4857,0.4828,0.4836,0.48,0.4811,0.479,0.4788,0.4777,0.4778,0.4777,0.4738,0.4795,0.4888,0.4897,0.4776,0.4775,0.4774,0,0.4981,0.4977,0.4991,0.4985,0.4954,0.4962,0.4949,0.493,0.4927,0.4918,0.4916,0.4908,0.4904,0.4898,0.4867,0.4843,0.4881,0.4843,0.4869,0.487,0.4879,0.4879,0.4973,0.4878,0.4878,0.4878,0.4878,0,0.5054,0.5071,0.5025,0.5034,0.5051,0.5014,0.5032,0.5015,0.4998,0.5003,0.4964,0.4969,0.4927,0.4927,0.4903,0.4915,0.4914,0.4902,0.4895,0.4905,0.4907,0.4904,0.4899,0.488,0.4879,0.4879,0.4879,0,0.5141,0.5111,0.5124,0.5093,0.5086,0.51,0.5073,0.508,0.5058,0.5064,0.5063,0.5029,0.5027,0.4995,0.4987,0.497,0.4992,0.4978,0.4998,0.4994,0.5021,0.5019,0.5116,0.5127,0.5026,0.5027,0.5028,0,0.5189,0.5201,0.5172,0.5172,0.5161,0.5162,0.5158,0.5122,0.512,0.51,0.5109,0.5104,0.5098,0.5097,0.5071,0.5063,0.5049,0.5083,0.5048,0.5057,0.5049,0.5049,0.5049,0.5091,0.5093,0.5094,0.5094,0,0.5278,0.5262,0.5258,0.525,0.5247,0.5238,0.5227,0.5229,0.5188,0.5188,0.5185,0.518,0.5171,0.5166,0.5154,0.514,0.5111,0.5106,0.5111,0.5122,0.5133,0.5127,0.5019,0.5104,0.5103,0.5102,0.5102,0.5101,0.5347,0.5355,0.5335,0.5332,0.532,0.531,0.5315,0.5293,0.529,0.528,0.5258,0.5259,0.524,0.522,0.5209,0.5209,0.5191,0.5199,0.5201,0.5204,0.5209,0.5133,0.5206,0.5206,0.5206,0.5206,0.5205,0,0.5433,0.5418,0.5415,0.5401,0.5398,0.537,0.5356,0.5356,0.5357,0.5342,0.5336,0.5333,0.5327,0.5301,0.5292,0.5297,0.5283,0.5296,0.5295,0.5292,0.5226,0.5222,0.5307,0.5307,0.5307,0.5307,0.5307,0.5307,0.5477,0.5489,0.5471,0.5477,0.5461,0.5462,0.5456,0.5446,0.5434,0.5432,0.5427,0.541,0.539,0.5379,0.5373,0.5365,0.5364,0.5381,0.5369,0.5307,0.5297,0.5288,0.5284,0.5381,0.5381,0.5435,0.5436,0.5436]},{"header":{"parameterUnit":"m.s-1","parameterCategory":1,"la1":30.2991,"la2":30.254,"lo1":-89.0895,"lo2":-89.0444,"dy":0.0017,"dx":0.0017,"nx":28,"ny":28,"refTime":"2024-05-15T21:00:00:Z","depth":0,"parameterNumber":3,"parameterNumberName":"V-component_of_WINDS"},"data":[0,0,0,0,0,0,0,0,0,0,0,0,0,0,0,0,0,0,0,0,0,0,0,0,0,0,0,0,0,0,0,0,0,0,0,0,0,0,0,0,0,0,0,0,0,0,0,0,0,0,0,0,0,0,0,0,0,0,6.1018,6.102,0,6.1175,6.1177,6.1178,6.1152,6.1149,6.1147,6.1144,6.1299,6.1306,6.1312,0,0,0,0,0,0,0,0,0,0,0,0,0,6.0689,6.0696,6.1018,6.102,6.1022,6.1175,6.1177,6.1179,6.1153,6.1149,6.1146,6.1143,6.1297,6.1305,6.1313,0,0,0,0,0,0,0,0,0,0,0,0,0,6.0838,6.0698,6.1017,6.1027,6.103,6.1174,6.1177,6.1179,6.1153,6.1149,6.1145,6.1141,6.1294,6.1304,6.1314,6.1457,0,0,6.1345,6.1349,0,0,0,0,0,0,0,0,6.0829,6.085,6.1024,6.1027,6.103,6.114,6.1118,6.1272,6.1154,6.1106,6.1144,6.1139,6.1249,6.1263,6.1301,6.1464,6.1471,6.1345,6.1351,6.1356,6.1359,0,0,0,0,0,0,0,6.0819,6.0843,6.108,6.1026,6.103,6.1022,6.1038,6.1147,6.1198,6.111,6.1108,6.1128,6.125,6.1291,6.1304,6.1473,6.1345,6.1354,6.136,6.1364,6.1763,6.1767,0,0,0,0,0,0,6.0807,6.0834,6.1075,6.1084,6.0918,6.1031,6.105,6.1108,6.1197,6.1207,6.1131,6.1126,6.1276,6.1293,6.131,6.1484,6.1356,6.1365,6.1371,6.1758,6.1764,6.1769,0,0,0,0,0,0,6.08,6.0828,6.1068,6.0959,6.0989,6.1041,6.1107,6.1114,6.1155,6.1213,6.1222,6.1164,6.1274,6.1296,6.1421,6.1489,6.137,6.1379,6.1753,6.176,6.1766,6.1834,0,0,0,0,0,0,6.0791,6.0826,6.0882,6.0961,6.0995,6.1179,6.1112,6.112,6.1173,6.1168,6.1247,6.1256,6.1272,6.1406,6.1431,6.1501,6.1386,6.1747,6.1756,6.1764,6.1826,6.1842,6.1856,0,0,0,0,0,6.0779,6.0894,6.0885,6.0915,6.1067,6.1183,6.1203,6.1221,6.1179,6.1235,6.1272,6.1253,6.1477,6.142,6.1447,6.1521,6.1743,6.1753,6.1763,6.1819,6.1839,6.1856,0,0,0,0,0,0,6.082,6.0904,6.0896,6.104,6.1105,6.1179,6.125,6.1241,6.1318,6.131,6.1328,6.1346,6.1473,6.1509,6.1443,6.1664,6.1604,6.162,6.1636,6.1656,6.1671,6.166,6.1395,0,0,0,0,0,6.0846,6.0935,6.1003,6.1123,6.1157,6.1198,6.1249,6.1258,6.1325,6.1352,6.1398,6.1463,6.1548,6.1603,6.1685,6.183,6.1847,6.1894,6.1909,6.1921,6.1936,6.2016,6.2038,6.1803,6.1802,6.1802,0,0,6.09,6.0957,6.1012,6.1133,6.1185,6.1276,6.1221,6.1319,6.1387,6.1366,6.1489,6.1525,6.1598,6.1734,6.1797,6.1768,6.2004,6.1934,6.1944,6.1952,6.2029,6.2051,6.2071,6.181,6.1808,6.1807,0,0,6.1046,6.1098,6.1205,6.1258,6.1337,6.1364,6.1389,6.1465,6.1489,6.1613,6.16,6.1678,6.1824,6.1877,6.1923,6.2089,6.2075,6.2115,6.2195,6.2273,6.2291,6.2308,6.2368,6.2389,6.2129,6.2129,6.2129,0,6.1103,6.1242,6.126,6.1361,6.1414,6.1402,6.1509,6.1559,6.166,6.1696,6.1663,6.1847,6.1895,6.2044,6.2085,6.2122,6.2151,6.2107,6.2287,6.2304,6.232,6.2378,6.24,6.2133,6.2133,6.2132,6.2132,0,6.1308,6.1404,6.1481,6.1581,6.1643,6.1746,6.1779,6.1839,6.1842,6.1871,6.1997,6.2054,6.2148,6.2183,6.2186,6.2333,6.2313,6.2283,6.2224,6.2347,6.2401,6.2423,6.214,6.2138,6.2137,6.2136,0,0,6.1486,6.1596,6.1624,6.1669,6.1756,6.183,6.1931,6.2025,6.2076,6.2145,6.2231,6.2355,6.2329,6.2381,6.239,6.2458,6.2587,6.242,6.2422,6.245,6.2753,6.2776,6.2802,6.2577,6.2582,6.2585,6.2748,0,6.1641,6.1824,6.1844,6.2007,6.2096,6.2085,6.2173,6.2235,6.2265,6.2344,6.2376,6.2464,6.2422,6.2454,6.2521,6.2557,6.2648,6.2545,6.2657,6.2661,6.2641,6.283,6.2855,6.3006,6.2769,6.2773,6.2775,0,6.1847,6.1925,6.2098,6.2173,6.2211,6.2291,6.2378,6.2453,6.2522,6.2539,6.2598,6.2598,6.2702,6.2637,6.278,6.271,6.2756,6.2781,6.2787,6.28,6.2727,6.2849,6.3054,6.3078,6.2809,6.2806,6.2804,0,6.1961,6.2109,6.2232,6.2271,6.2361,6.2417,6.2457,6.2523,6.2578,6.2653,6.2689,6.2774,6.2821,6.2887,6.2909,6.2859,6.3052,6.2988,6.3068,6.3068,6.3111,6.3108,6.3328,6.3138,6.3138,6.3137,6.3137,0,6.2133,6.224,6.2284,6.236,6.2478,6.2499,6.2615,6.2651,6.271,6.2791,6.2785,6.2861,6.2885,6.2965,6.2983,6.3099,6.312,6.3136,6.314,6.3138,6.3136,6.317,6.3161,6.3143,6.3142,6.3141,6.314,0,6.2281,6.2315,6.2449,6.2524,6.2545,6.2629,6.2692,6.2764,6.2793,6.2896,6.2921,6.2966,6.306,6.3089,6.3201,6.3213,6.335,6.3343,6.3327,6.3328,6.3407,6.34,6.3658,6.3693,6.3478,6.348,6.3482,0,6.239,6.2472,6.2556,6.2612,6.2654,6.2743,6.28,6.2822,6.2881,6.2966,6.3028,6.3121,6.3198,6.3348,6.3389,6.3475,6.3471,6.3556,6.3484,6.348,6.3475,6.347,6.3479,6.357,6.3572,6.3574,6.3575,0,6.258,6.2593,6.2676,6.2766,6.2834,6.2905,6.2973,6.3018,6.3049,6.3116,6.3213,6.3272,6.3388,6.3481,6.3568,6.3606,6.3597,6.3597,6.3621,6.362,6.3609,6.3618,6.3366,6.3592,6.359,6.3589,6.3588,6.3587,6.2713,6.2786,6.2857,6.295,6.3003,6.3067,6.314,6.3178,6.326,6.3358,6.3365,6.347,6.3537,6.3654,6.3697,6.3778,6.3754,6.3787,6.3796,6.3805,6.3812,6.3594,6.3794,6.3794,6.3793,6.3793,6.3792,0,6.2904,6.2949,6.3034,6.3131,6.3204,6.3189,6.3264,6.3325,6.3419,6.3483,6.3558,6.367,6.376,6.3808,6.3898,6.3954,6.3951,6.3977,6.3974,6.3983,6.3828,6.38,6.3977,6.3977,6.3977,6.3977,6.3977,6.3977,6.3012,6.3135,6.3157,6.3306,6.3349,6.3455,6.3498,6.3557,6.3608,6.3734,6.381,6.3841,6.3899,6.3993,6.4074,6.4086,6.412,6.4148,6.4157,6.4012,6.3994,6.3976,6.3949,6.4155,6.4155,6.4306,6.4307,6.4308]}]]